[[{"header":{"parameterUnit":"m.s-1","parameterCategory":1,"la1":30.2992,"la2":30.254,"lo1":-89.0895,"lo2":-89.0443,"dy":0.0025,"dx":0.0025,"nx":19,"ny":19,"refTime":"2026-05-10T21:00:00:Z","depth":0,"parameterNumber":2,"parameterNumberName":"U-component_of_WINDS"},"data":[0,0,0,-1.7922,-1.7923,-1.7928,-1.7928,-1.7962,-1.7963,0,0,0,0,0,0,0,0,0,0,0,-1.7935,-1.7936,-1.7922,-1.7923,-1.7928,-1.7928,-1.7962,-1.7963,0,0,0,0,0,0,0,0,0,0,0,-1.7935,-1.7936,-1.7937,-1.7923,-1.7928,-1.7928,-1.7962,-1.7949,0,0,0,0,0,0,0,0,0,0,-1.7939,-1.7965,-1.7936,-1.7937,-1.7923,-1.7928,-1.7928,-1.7948,-1.7949,-1.7971,0,-1.7992,0,-1.7978,-1.7966,-1.7967,0,0,0,-1.7912,-1.7964,-1.7951,-1.7937,-1.7923,-1.7928,-1.7923,-1.7948,-1.7951,-1.7974,-1.7992,-1.7993,-1.7978,-1.7967,-1.7967,-1.8122,-1.8123,0,0,-1.7912,-1.7945,-1.795,-1.7953,-1.7952,-1.7922,-1.7923,-1.7949,-1.7973,-1.7992,-1.7993,-1.7979,-1.7967,-1.7968,-1.8121,-1.8122,0,0,0,-1.7918,-1.7945,-1.7931,-1.7953,-1.7951,-1.7923,-1.7923,-1.7971,-1.7964,-1.7993,-1.7979,-1.7968,-1.7968,-1.8119,-1.8121,-1.8214,0,0,0,-1.7917,-1.7949,-1.7932,-1.7952,-1.7951,-1.7961,-1.7946,-1.7962,-1.7964,-1.7979,-1.7968,-1.7969,-1.8118,-1.812,-1.8209,-1.8254,0,0,0,-1.793,-1.795,-1.7955,-1.7954,-1.7957,-1.796,-1.7954,-1.7962,-1.7956,-1.7967,-1.7969,-1.8117,-1.812,-1.8204,-1.8246,-1.8307,0,0,0,-1.7954,-1.8038,-1.7957,-1.8046,-1.7957,-1.8016,-1.7953,-1.7995,-1.8015,-1.7968,-1.8118,-1.8121,-1.8202,-1.8241,-1.8301,-1.8366,-1.8394,0,0,-1.8079,-1.8055,-1.8104,-1.8032,-1.8114,-1.8013,-1.8108,-1.8096,-1.8067,-1.8106,-1.8109,-1.8211,-1.8245,-1.8305,-1.8539,-1.8562,0,0,0,-1.8155,-1.8192,-1.8206,-1.8226,-1.8217,-1.8214,-1.8183,-1.8178,-1.8209,-1.8093,-1.8246,-1.8266,-1.83,-1.8329,-1.8349,-1.8377,-1.8135,-1.8134,-1.8134,-1.8383,-1.834,-1.842,-1.8378,-1.8398,-1.8364,-1.8377,-1.8366,-1.8317,-1.8354,-1.8367,-1.8513,-1.8549,-1.8564,-1.8594,-1.8394,-1.8394,-1.8395,-1.8395,-1.8566,-1.8612,-1.8544,-1.8598,-1.8553,-1.8598,-1.8569,-1.8533,-1.857,-1.85,-1.8528,-1.8459,-1.859,-1.8615,-1.8402,-1.84,-1.84,-1.8399,-1.8399,-1.8714,-1.8729,-1.8719,-1.8743,-1.8767,-1.872,-1.8759,-1.8716,-1.8676,-1.8703,-1.8713,-1.8712,-1.8708,-1.871,-1.871,-1.8711,-1.8711,-1.8712,-1.8712,-1.8872,-1.8859,-1.8896,-1.8892,-1.8899,-1.8903,-1.8869,-1.8876,-1.8872,-1.8838,-1.8838,-1.8789,-1.8609,-1.8567,-1.872,-1.8718,-1.8717,-1.8717,-1.8716,-1.9081,-1.9026,-1.9084,-1.9091,-1.9083,-1.9111,-1.9053,-1.907,-1.9069,-1.909,-1.9032,-1.8906,-1.8879,-1.8863,-1.8828,-1.9039,-1.9039,-1.9039,-1.9039,-1.9209,-1.9189,-1.9238,-1.9252,-1.9261,-1.9214,-1.9284,-1.9258,-1.9223,-1.922,-1.9182,-1.9131,-1.9117,-1.9099,-1.9078,-1.9045,-1.9306,-1.9306,-1.9306,-1.9336,-1.9315,-1.9382,-1.9345,-1.9336,-1.933,-1.9394,-1.9415,-1.9364,-1.9316,-1.9218,-1.9207,-1.9124,-1.9098,-1.9054,-1.9022,-1.8961,0,0]},{"header":{"parameterUnit":"m.s-1","parameterCategory":1,"la1":30.2992,"la2":30.254,"lo1":-89.0895,"lo2":-89.0443,"dy":0.0025,"dx":0.0025,"nx":19,"ny":19,"refTime":"2026-05-10T21:00:00:Z","depth":0,"parameterNumber":3,"parameterNumberName":"V-component_of_WINDS"},"data":[0,0,0,-2.1072,-2.1073,-2.107,-2.107,-2.1088,-2.1088,0,0,0,0,0,0,0,0,0,0,0,-2.1084,-2.1085,-2.1072,-2.1073,-2.107,-2.107,-2.1088,-2.1088,0,0,0,0,0,0,0,0,0,0,0,-2.1084,-2.1085,-2.1085,-2.1073,-2.107,-2.107,-2.1087,-2.1082,0,0,0,0,0,0,0,0,0,0,-2.1081,-2.1103,-2.1085,-2.1085,-2.1073,-2.107,-2.107,-2.1082,-2.1083,-2.1097,0,-2.1112,0,-2.1101,-2.109,-2.109,0,0,0,-2.1064,-2.1102,-2.1091,-2.1086,-2.1073,-2.107,-2.1069,-2.1082,-2.1083,-2.1098,-2.1112,-2.1112,-2.1101,-2.1091,-2.1091,-2.1202,-2.1203,0,0,-2.1064,-2.109,-2.1091,-2.1093,-2.1093,-2.1069,-2.1069,-2.1082,-2.1099,-2.1112,-2.1113,-2.1101,-2.1091,-2.1091,-2.1202,-2.1203,0,0,0,-2.107,-2.1091,-2.1079,-2.1092,-2.1091,-2.1069,-2.1069,-2.1099,-2.1093,-2.1113,-2.1101,-2.1091,-2.1091,-2.12,-2.1202,-2.1274,0,0,0,-2.107,-2.1094,-2.1079,-2.1095,-2.1091,-2.1094,-2.1086,-2.1092,-2.1092,-2.1101,-2.1091,-2.1092,-2.1199,-2.1201,-2.1269,-2.1304,0,0,0,-2.1081,-2.1095,-2.1099,-2.1097,-2.1097,-2.1094,-2.1088,-2.1091,-2.1086,-2.109,-2.1092,-2.1199,-2.1201,-2.1266,-2.1297,-2.1342,0,0,0,-2.11,-2.1161,-2.11,-2.1165,-2.1097,-2.1137,-2.1088,-2.1116,-2.1129,-2.1091,-2.12,-2.1202,-2.1264,-2.1293,-2.1338,-2.1386,-2.1407,0,0,-2.1192,-2.1173,-2.121,-2.1155,-2.1213,-2.1136,-2.1204,-2.1191,-2.1167,-2.1192,-2.1195,-2.1271,-2.1297,-2.1341,-2.1517,-2.1535,0,0,0,-2.1248,-2.1275,-2.1284,-2.1297,-2.1288,-2.1284,-2.1257,-2.1253,-2.1273,-2.1185,-2.1297,-2.1312,-2.1337,-2.1359,-2.1374,-2.1394,-2.1212,-2.1212,-2.1212,-2.1417,-2.1384,-2.1442,-2.141,-2.1423,-2.1395,-2.1404,-2.1393,-2.1354,-2.1382,-2.139,-2.15,-2.1526,-2.1537,-2.156,-2.141,-2.1411,-2.1411,-2.1411,-2.1551,-2.1584,-2.1533,-2.1572,-2.1538,-2.157,-2.1546,-2.1519,-2.1544,-2.1491,-2.1512,-2.1458,-2.1558,-2.1575,-2.1416,-2.1415,-2.1415,-2.1414,-2.1414,-2.1659,-2.167,-2.1663,-2.168,-2.1696,-2.1661,-2.1689,-2.1655,-2.1624,-2.1644,-2.165,-2.1649,-2.1645,-2.1649,-2.165,-2.165,-2.165,-2.1651,-2.1651,-2.1776,-2.1765,-2.1793,-2.179,-2.1795,-2.1797,-2.1771,-2.1775,-2.1771,-2.1745,-2.1745,-2.1707,-2.1573,-2.1541,-2.1657,-2.1656,-2.1655,-2.1654,-2.1654,-2.1927,-2.1888,-2.193,-2.1935,-2.193,-2.195,-2.1907,-2.1919,-2.1918,-2.1933,-2.189,-2.1795,-2.1774,-2.1762,-2.1736,-2.1895,-2.1895,-2.1895,-2.1895,-2.202,-2.2006,-2.2043,-2.2054,-2.206,-2.2026,-2.2077,-2.2058,-2.2032,-2.203,-2.2001,-2.1963,-2.1952,-2.1937,-2.1921,-2.1897,-2.2093,-2.2093,-2.2093,-2.2113,-2.2098,-2.2147,-2.2121,-2.2115,-2.2111,-2.2158,-2.2174,-2.2136,-2.2101,-2.2028,-2.2019,-2.1957,-2.1938,-2.1903,-2.1879,-2.1832,0,0]}]]